User: anonymous   Login
Location: Gipe Farm
(40.9466°N, 95.5370°W)
Time: 01:23:13
(UTC-05:00)
Language:

Cosmos 2082 Rocket - Orbit

View from above orbital plane
View from above orbital plane
View from above satellite
View from above satellite

Ground track
Ground track

The orbit data is extracted from the following two-line orbital elements,

1 20625U 90046B   17232.62621556 -.00000070 +00000-0 -11403-4 0  9994
2 20625 071.0013 013.8933 0014296 000.0255 000.0866 14.14623068406690
Epoch (UTC): 20 August 2017 15:01:45
Eccentricity: 0.0014296
inclination: 71.0013°
perigee height: 833 km
apogee height: 854 km
right ascension of ascending node: 13.8933°
argument of perigee: 0.0255°
revolutions per day: 14.14623068
mean anomaly at epoch: 0.0866°
orbit number at epoch: 40669

The dashed part of the orbit path shows where the satellite is in the earth's shadow,  

DLR